sat.trackr.live / text

‹ back to catalog

GLOBALSTAR M077

NORAD 37191 · 2010-054D

PAYLOAD ACTIVE UNKNOWN

§ Identity

Operator
Country
GLOB
Launch date
2010-10-19
Launch site
TYMSC
Launch vehicle
Mass (kg)
RCS (m²)
4.79

Purposes: comms

External: N2YO · Heavens-Above · Gunter

§ Orbital elements

Epoch: 2026-09-20T03:29:11.977728Z

Period
123.34 min
Inclination
51.9964°
Eccentricity
0.0002639
Mean motion
11.67547817 rev/d
Perigee alt
1,827.3 km
Apogee alt
1,831.7 km
Semi-major
8,207.6 km
B*
-8.5043e-5
RAAN
298.2804°
Arg perigee
355.3417°
Mean anomaly
38.2228°
Rev number
73,223

§ Raw data

GLOBALSTAR M0771 37191U 10054D   26263.14527752 -.00000083  00000+0 -85043-4 0  99992 37191  51.9964 298.2804 0002639 355.3417  38.2228 11.67547817732237

JSON: /api/v1/satellites/37191 · /tle

For live sub-satellite position, see the globe view (requires WebGL).

§ Visibility from observer

Set your observer location to see the next 7 days of passes ≥ 10°. The values pass through the URL so the page stays shareable.

No JS? Fill the form by hand. The geolocation button needs JavaScript.